Year,Month,Day,Hour,Minute,Value (Times are PST for temperature in C)
2009,10,27,00,00,5.90
2009,10,27,00,01,5.80
2009,10,27,00,02,5.80
2009,10,27,00,03,5.70
2009,10,27,00,04,5.70
2009,10,27,00,05,5.60
2009,10,27,00,06,5.60
2009,10,27,00,07,5.50
2009,10,27,00,08,5.50
2009,10,27,00,09,5.40
2009,10,27,00,10,5.40
2009,10,27,00,11,5.30
2009,10,27,00,12,5.30
2009,10,27,00,13,5.30
2009,10,27,00,14,5.20
2009,10,27,00,15,5.20
2009,10,27,00,16,5.20
2009,10,27,00,17,5.10
2009,10,27,00,18,5.10
2009,10,27,00,19,5.10
2009,10,27,00,20,5.10
2009,10,27,00,21,5.10
2009,10,27,00,22,5.20
2009,10,27,00,23,5.20
2009,10,27,00,24,5.10
2009,10,27,00,25,5.10
2009,10,27,00,26,5.10
2009,10,27,00,27,5.00
2009,10,27,00,28,5.00
2009,10,27,00,29,4.90
2009,10,27,00,30,4.90
2009,10,27,00,31,4.80
2009,10,27,00,32,4.80
2009,10,27,00,33,4.80
2009,10,27,00,34,4.70
2009,10,27,00,35,4.70
2009,10,27,00,36,4.70
2009,10,27,00,37,4.60
2009,10,27,00,38,4.60
2009,10,27,00,39,4.60
2009,10,27,00,40,4.60
2009,10,27,00,41,4.70
2009,10,27,00,42,4.70
2009,10,27,00,43,4.70
2009,10,27,00,44,4.70
2009,10,27,00,45,4.80
2009,10,27,00,46,4.80
2009,10,27,00,47,4.80
2009,10,27,00,48,4.90
2009,10,27,00,49,5.00
2009,10,27,00,50,5.10
2009,10,27,00,51,5.10
2009,10,27,00,52,5.00
2009,10,27,00,53,4.90
2009,10,27,00,54,4.80
2009,10,27,00,55,4.70
2009,10,27,00,56,4.70
2009,10,27,00,57,4.80
2009,10,27,00,58,4.80
2009,10,27,00,59,4.70
2009,10,27,01,00,4.60
2009,10,27,01,01,4.60
2009,10,27,01,02,4.60
2009,10,27,01,03,4.60
2009,10,27,01,04,4.60
2009,10,27,01,05,4.60
2009,10,27,01,06,4.60
2009,10,27,01,07,4.60
2009,10,27,01,08,4.50
2009,10,27,01,09,4.50
2009,10,27,01,10,4.60
2009,10,27,01,11,4.60
2009,10,27,01,12,4.60
2009,10,27,01,13,4.50
2009,10,27,01,14,4.50
2009,10,27,01,15,4.50
2009,10,27,01,16,4.50
2009,10,27,01,17,4.40
2009,10,27,01,18,4.40
2009,10,27,01,19,4.30
2009,10,27,01,20,4.20
2009,10,27,01,21,4.20
2009,10,27,01,22,4.30
2009,10,27,01,23,4.40
2009,10,27,01,24,4.40
2009,10,27,01,25,4.40
2009,10,27,01,26,4.40
2009,10,27,01,27,4.30
2009,10,27,01,28,4.30
2009,10,27,01,29,4.30
2009,10,27,01,30,4.40
2009,10,27,01,31,4.60
2009,10,27,01,32,4.80
2009,10,27,01,33,5.10
2009,10,27,01,34,5.20
2009,10,27,01,35,5.30
2009,10,27,01,36,5.30
2009,10,27,01,37,5.30
2009,10,27,01,38,5.40
2009,10,27,01,39,5.40
2009,10,27,01,40,5.60
2009,10,27,01,41,5.80
2009,10,27,01,42,5.90
2009,10,27,01,43,5.90
2009,10,27,01,44,5.80
2009,10,27,01,45,5.90
2009,10,27,01,46,6.00
2009,10,27,01,47,6.00
2009,10,27,01,48,6.10
2009,10,27,01,49,6.10
2009,10,27,01,50,6.10
2009,10,27,01,51,6.20
2009,10,27,01,52,6.20
2009,10,27,01,53,6.20
2009,10,27,01,54,6.30
2009,10,27,01,55,6.30
2009,10,27,01,56,6.30
2009,10,27,01,57,6.40
2009,10,27,01,58,6.50
2009,10,27,01,59,6.60
2009,10,27,02,00,6.60
2009,10,27,02,01,6.60
2009,10,27,02,02,6.70
2009,10,27,02,03,6.70
2009,10,27,02,04,6.80
2009,10,27,02,05,6.80
2009,10,27,02,06,6.90
2009,10,27,02,07,6.90
2009,10,27,02,08,7.00
2009,10,27,02,09,7.00
2009,10,27,02,10,6.90
2009,10,27,02,11,6.90
2009,10,27,02,12,6.90
2009,10,27,02,13,6.80
2009,10,27,02,14,6.70
2009,10,27,02,15,6.70
2009,10,27,02,16,6.60
2009,10,27,02,17,6.50
2009,10,27,02,18,6.50
2009,10,27,02,19,6.50
2009,10,27,02,20,6.50
2009,10,27,02,21,6.50
2009,10,27,02,22,6.60
2009,10,27,02,23,6.70
2009,10,27,02,24,6.70
2009,10,27,02,27,6.80
2009,10,27,02,28,6.80
2009,10,27,02,29,6.70
2009,10,27,02,30,6.60
2009,10,27,02,31,6.60
2009,10,27,02,32,6.60
2009,10,27,02,33,6.60
2009,10,27,02,34,6.70
2009,10,27,02,35,6.70
2009,10,27,02,36,6.80
2009,10,27,02,37,6.80
2009,10,27,02,38,6.90
2009,10,27,02,39,6.80
2009,10,27,02,40,6.80
2009,10,27,02,41,6.80
2009,10,27,02,42,6.80
2009,10,27,02,43,6.90
2009,10,27,02,44,7.00
2009,10,27,02,45,7.00
2009,10,27,02,46,7.00
2009,10,27,02,47,7.00
2009,10,27,02,48,6.90
2009,10,27,02,49,6.90
2009,10,27,02,50,6.90
2009,10,27,02,51,6.90
2009,10,27,02,52,7.00
2009,10,27,02,53,7.00
2009,10,27,02,54,7.10
2009,10,27,02,55,7.10
2009,10,27,02,56,7.10
2009,10,27,02,57,7.10
2009,10,27,02,58,7.10
2009,10,27,02,59,7.20
2009,10,27,03,00,7.10
2009,10,27,03,01,7.10
2009,10,27,03,02,7.10
2009,10,27,03,03,7.00
2009,10,27,03,04,6.90
2009,10,27,03,05,6.80
2009,10,27,03,06,6.70
2009,10,27,03,07,6.70
2009,10,27,03,08,6.60
2009,10,27,03,09,6.60
2009,10,27,03,10,6.50
2009,10,27,03,11,6.50
2009,10,27,03,12,6.40
2009,10,27,03,13,6.40
2009,10,27,03,14,6.40
2009,10,27,03,15,6.40
2009,10,27,03,16,6.40
2009,10,27,03,17,6.50
2009,10,27,03,18,6.50
2009,10,27,03,19,6.50
2009,10,27,03,20,6.60
2009,10,27,03,21,6.60
2009,10,27,03,22,6.60
2009,10,27,03,23,6.60
2009,10,27,03,24,6.50
2009,10,27,03,25,6.50
2009,10,27,03,26,6.40
2009,10,27,03,27,6.30
2009,10,27,03,28,6.20
2009,10,27,03,29,6.10
2009,10,27,03,30,6.10
2009,10,27,03,31,6.00
2009,10,27,03,32,6.00
2009,10,27,03,33,5.90
2009,10,27,03,34,5.90
2009,10,27,03,35,5.90
2009,10,27,03,36,5.90
2009,10,27,03,37,5.90
2009,10,27,03,38,5.80
2009,10,27,03,39,5.80
2009,10,27,03,40,5.70
2009,10,27,03,41,5.70
2009,10,27,03,42,5.60
2009,10,27,03,43,5.60
2009,10,27,03,44,5.60
2009,10,27,03,45,5.50
2009,10,27,03,46,5.50
2009,10,27,03,47,5.50
2009,10,27,03,48,5.40
2009,10,27,03,49,5.40
2009,10,27,03,50,5.40
2009,10,27,03,51,5.40
2009,10,27,03,52,5.40
2009,10,27,03,53,5.40
2009,10,27,03,54,5.30
2009,10,27,03,55,5.30
2009,10,27,03,56,5.30
2009,10,27,03,57,5.30
2009,10,27,03,58,5.20
2009,10,27,03,59,5.20
2009,10,27,04,00,5.20
2009,10,27,04,01,5.10
2009,10,27,04,02,5.10
2009,10,27,04,03,5.10
2009,10,27,04,04,5.10
2009,10,27,04,05,5.10
2009,10,27,04,06,5.10
2009,10,27,04,07,5.10
2009,10,27,04,08,5.10
2009,10,27,04,09,5.00
2009,10,27,04,10,4.90
2009,10,27,04,11,4.90
2009,10,27,04,12,4.90
2009,10,27,04,13,4.80
2009,10,27,04,14,4.80
2009,10,27,04,15,4.70
2009,10,27,04,16,4.70
2009,10,27,04,17,4.70
2009,10,27,04,18,4.70
2009,10,27,04,19,4.70
2009,10,27,04,20,4.60
2009,10,27,04,21,4.50
2009,10,27,04,22,4.50
2009,10,27,04,23,4.40
2009,10,27,04,24,4.40
2009,10,27,04,25,4.30
2009,10,27,04,26,4.30
2009,10,27,04,27,4.30
2009,10,27,04,28,4.30
2009,10,27,04,29,4.20
2009,10,27,04,30,4.20
2009,10,27,04,31,4.20
2009,10,27,04,32,4.20
2009,10,27,04,33,4.30
2009,10,27,04,34,4.30
2009,10,27,04,35,4.30
2009,10,27,04,36,4.30
2009,10,27,04,37,4.30
2009,10,27,04,38,4.20
2009,10,27,04,39,4.20
2009,10,27,04,40,4.30
2009,10,27,04,41,4.30
2009,10,27,04,42,4.30
2009,10,27,04,43,4.40
2009,10,27,04,44,4.40
2009,10,27,04,45,4.50
2009,10,27,04,46,4.50
2009,10,27,04,47,4.60
2009,10,27,04,48,4.60
2009,10,27,04,49,4.60
2009,10,27,04,50,4.60
2009,10,27,04,51,4.60
2009,10,27,04,52,4.70
2009,10,27,04,53,4.70
2009,10,27,04,54,4.70
2009,10,27,04,55,4.70
2009,10,27,04,56,4.70
2009,10,27,04,57,4.70
2009,10,27,04,58,4.80
2009,10,27,04,59,4.70
2009,10,27,05,00,4.70
2009,10,27,05,01,4.70
2009,10,27,05,02,4.70
2009,10,27,05,03,4.70
2009,10,27,05,04,4.70
2009,10,27,05,05,4.70
2009,10,27,05,06,4.70
2009,10,27,05,07,4.70
2009,10,27,05,08,4.70
2009,10,27,05,09,4.70
2009,10,27,05,10,4.70
2009,10,27,05,11,4.70
2009,10,27,05,12,4.70
2009,10,27,05,13,4.70
2009,10,27,05,14,4.60
2009,10,27,05,15,4.60
2009,10,27,05,16,4.60
2009,10,27,05,17,4.60
2009,10,27,05,18,4.60
2009,10,27,05,19,4.60
2009,10,27,05,20,4.50
2009,10,27,05,21,4.50
2009,10,27,05,22,4.50
2009,10,27,05,23,4.40
2009,10,27,05,24,4.40
2009,10,27,05,25,4.30
2009,10,27,05,26,4.20
2009,10,27,05,27,4.10
2009,10,27,05,28,4.00
2009,10,27,05,29,4.00
2009,10,27,05,30,3.90
2009,10,27,05,31,3.80
2009,10,27,05,32,3.70
2009,10,27,05,33,3.60
2009,10,27,05,34,3.50
2009,10,27,05,35,3.40
2009,10,27,05,36,3.40
2009,10,27,05,37,3.30
2009,10,27,05,38,3.30
2009,10,27,05,39,3.30
2009,10,27,05,40,3.30
2009,10,27,05,41,3.30
2009,10,27,05,42,3.20
2009,10,27,05,43,3.20
2009,10,27,05,44,3.10
2009,10,27,05,45,3.10
2009,10,27,05,46,3.10
2009,10,27,05,47,3.10
2009,10,27,05,48,3.00
2009,10,27,05,49,3.00
2009,10,27,05,50,3.00
2009,10,27,05,51,3.00
2009,10,27,05,52,3.00
2009,10,27,05,53,3.10
2009,10,27,05,54,3.10
2009,10,27,05,55,3.10
2009,10,27,05,56,3.10
2009,10,27,05,57,3.10
2009,10,27,05,58,3.10
2009,10,27,05,59,3.20
2009,10,27,06,00,3.20
2009,10,27,06,01,3.20
2009,10,27,06,02,3.20
2009,10,27,06,03,3.20
2009,10,27,06,04,3.20
2009,10,27,06,05,3.30
2009,10,27,06,06,3.30
2009,10,27,06,07,3.30
2009,10,27,06,08,3.30
2009,10,27,06,09,3.30
2009,10,27,06,10,3.30
2009,10,27,06,11,3.20
2009,10,27,06,12,3.20
2009,10,27,06,13,3.10
2009,10,27,06,14,3.10
2009,10,27,06,15,3.10
2009,10,27,06,16,3.10
2009,10,27,06,17,3.10
2009,10,27,06,18,3.20
2009,10,27,06,19,3.20
2009,10,27,06,20,3.20
2009,10,27,06,21,3.20
2009,10,27,06,22,3.20
2009,10,27,06,23,3.20
2009,10,27,06,24,3.20
2009,10,27,06,25,3.10
2009,10,27,06,26,3.10
2009,10,27,06,27,3.10
2009,10,27,06,28,3.10
2009,10,27,06,29,3.00
2009,10,27,06,30,2.90
2009,10,27,06,31,2.90
2009,10,27,06,32,2.90
2009,10,27,06,33,2.80
2009,10,27,06,34,2.80
2009,10,27,06,35,2.80
2009,10,27,06,36,2.80
2009,10,27,06,37,2.70
2009,10,27,06,38,2.70
2009,10,27,06,39,2.70
2009,10,27,06,40,2.70
2009,10,27,06,41,2.80
2009,10,27,06,42,2.80
2009,10,27,06,43,2.80
2009,10,27,06,44,2.80
2009,10,27,06,45,2.80
2009,10,27,06,46,2.80
2009,10,27,06,47,2.80
2009,10,27,06,48,2.70
2009,10,27,06,49,2.70
2009,10,27,06,50,2.60
2009,10,27,06,51,2.60
2009,10,27,06,52,2.50
2009,10,27,06,53,2.40
2009,10,27,06,54,2.40
2009,10,27,06,55,2.40
2009,10,27,06,56,2.30
2009,10,27,06,57,2.30
2009,10,27,06,58,2.30
2009,10,27,06,59,2.30
2009,10,27,07,00,2.30
2009,10,27,07,01,2.20
2009,10,27,07,02,2.20
2009,10,27,07,03,2.20
2009,10,27,07,04,2.20
2009,10,27,07,05,2.10
2009,10,27,07,06,2.10
2009,10,27,07,07,2.10
2009,10,27,07,08,2.10
2009,10,27,07,09,2.10
2009,10,27,07,10,2.10
2009,10,27,07,11,2.10
2009,10,27,07,12,2.10
2009,10,27,07,13,2.10
2009,10,27,07,14,2.10
2009,10,27,07,15,2.00
2009,10,27,07,16,2.00
2009,10,27,07,17,2.00
2009,10,27,07,18,1.90
2009,10,27,07,19,1.90
2009,10,27,07,20,1.80
2009,10,27,07,21,1.80
2009,10,27,07,22,1.80
2009,10,27,07,23,1.80
2009,10,27,07,24,1.80
2009,10,27,07,25,1.80
2009,10,27,07,26,1.80
2009,10,27,07,27,1.70
2009,10,27,07,28,1.70
2009,10,27,07,29,1.70
2009,10,27,07,30,1.80
2009,10,27,07,31,1.80
2009,10,27,07,32,1.90
2009,10,27,07,33,2.00
2009,10,27,07,34,2.10
2009,10,27,07,35,2.20
2009,10,27,07,36,2.30
2009,10,27,07,37,2.30
2009,10,27,07,38,2.30
2009,10,27,07,39,2.30
2009,10,27,07,40,2.40
2009,10,27,07,41,2.40
2009,10,27,07,42,2.40
2009,10,27,07,43,2.40
2009,10,27,07,44,2.40
2009,10,27,07,45,2.40
2009,10,27,07,46,2.30
2009,10,27,07,47,2.30
2009,10,27,07,48,2.30
2009,10,27,07,49,2.30
2009,10,27,07,50,2.20
2009,10,27,07,51,2.20
2009,10,27,07,52,2.10
2009,10,27,07,53,2.10
2009,10,27,07,54,2.00
2009,10,27,07,55,2.00
2009,10,27,07,56,1.90
2009,10,27,07,57,1.90
2009,10,27,07,58,1.90
2009,10,27,07,59,1.90
2009,10,27,08,00,1.90
2009,10,27,08,01,1.90
2009,10,27,08,02,1.90
2009,10,27,08,03,1.90
2009,10,27,08,04,1.90
2009,10,27,08,05,1.90
2009,10,27,08,06,1.90
2009,10,27,08,07,1.80
2009,10,27,08,08,1.80
2009,10,27,08,09,1.80
2009,10,27,08,10,1.80
2009,10,27,08,11,1.80
2009,10,27,08,12,1.80
2009,10,27,08,13,1.80
2009,10,27,08,14,1.80
2009,10,27,08,15,1.80
2009,10,27,08,16,1.80
2009,10,27,08,17,1.80
2009,10,27,08,18,1.80
2009,10,27,08,19,1.80
2009,10,27,08,20,1.80
2009,10,27,08,21,1.80
2009,10,27,08,22,1.80
2009,10,27,08,23,1.80
2009,10,27,08,24,1.80
2009,10,27,08,25,1.80
2009,10,27,08,26,1.80
2009,10,27,08,27,1.80
2009,10,27,08,28,1.80
2009,10,27,08,29,1.80
2009,10,27,08,30,1.80
2009,10,27,08,31,1.80
2009,10,27,08,32,1.80
2009,10,27,08,33,1.80
2009,10,27,08,34,1.80
2009,10,27,08,35,1.80
2009,10,27,08,36,1.90
2009,10,27,08,37,1.90
2009,10,27,08,38,2.00
2009,10,27,08,39,2.00
2009,10,27,08,40,2.10
2009,10,27,08,41,2.10
2009,10,27,08,42,2.20
2009,10,27,08,43,2.20
2009,10,27,08,44,2.30
2009,10,27,08,45,2.30
2009,10,27,08,46,2.40
2009,10,27,08,47,2.40
2009,10,27,08,48,2.50
2009,10,27,08,49,2.50
2009,10,27,08,50,2.60
2009,10,27,08,51,2.60
2009,10,27,08,52,2.70
2009,10,27,08,53,2.70
2009,10,27,08,54,2.80
2009,10,27,08,55,2.80
2009,10,27,08,56,2.90
2009,10,27,08,57,3.00
2009,10,27,08,58,3.10
2009,10,27,08,59,3.20
2009,10,27,09,00,3.20
2009,10,27,09,01,3.30
2009,10,27,09,02,3.30
2009,10,27,09,03,3.40
2009,10,27,09,04,3.40
2009,10,27,09,05,3.50
2009,10,27,09,06,3.50
2009,10,27,09,07,3.60
2009,10,27,09,08,3.60
2009,10,27,09,09,3.70
2009,10,27,09,10,3.70
2009,10,27,09,11,3.80
2009,10,27,09,12,3.80
2009,10,27,09,13,3.90
2009,10,27,09,14,3.90
2009,10,27,09,15,4.00
2009,10,27,09,16,4.00
2009,10,27,09,17,4.10
2009,10,27,09,18,4.20
2009,10,27,09,19,4.20
2009,10,27,09,20,4.30
2009,10,27,09,21,4.30
2009,10,27,09,22,4.40
2009,10,27,09,23,4.50
2009,10,27,09,24,4.50
2009,10,27,09,25,4.60
2009,10,27,09,26,4.70
2009,10,27,09,27,4.80
2009,10,27,09,28,4.90
2009,10,27,09,29,5.00
2009,10,27,09,30,5.10
2009,10,27,09,31,5.20
2009,10,27,09,32,5.30
2009,10,27,09,33,5.40
2009,10,27,09,34,5.50
2009,10,27,09,35,5.60
2009,10,27,09,36,5.70
2009,10,27,09,37,5.80
2009,10,27,09,38,5.90
2009,10,27,09,39,6.00
2009,10,27,09,40,6.10
2009,10,27,09,41,6.20
2009,10,27,09,42,6.30
2009,10,27,09,43,6.30
2009,10,27,09,44,6.30
2009,10,27,09,45,6.30
2009,10,27,09,46,6.30
2009,10,27,09,47,6.40
2009,10,27,09,48,6.40
2009,10,27,09,49,6.40
2009,10,27,09,50,6.50
2009,10,27,09,51,6.60
2009,10,27,09,52,6.70
2009,10,27,09,53,6.70
2009,10,27,09,54,6.80
2009,10,27,09,55,6.90
2009,10,27,09,56,6.90
2009,10,27,09,57,7.10
2009,10,27,09,58,7.20
2009,10,27,09,59,7.20
2009,10,27,10,00,7.40
2009,10,27,10,01,7.40
2009,10,27,10,02,7.50
2009,10,27,10,03,7.50
2009,10,27,10,04,7.50
2009,10,27,10,05,7.50
2009,10,27,10,06,7.60
2009,10,27,10,07,7.70
2009,10,27,10,08,7.70
2009,10,27,10,09,7.80
2009,10,27,10,10,8.00
2009,10,27,10,11,8.00
2009,10,27,10,12,8.10
2009,10,27,10,13,8.20
2009,10,27,10,14,8.20
2009,10,27,10,15,8.30
2009,10,27,10,16,8.40
2009,10,27,10,17,8.40
2009,10,27,10,18,8.50
2009,10,27,10,19,8.50
2009,10,27,10,20,8.60
2009,10,27,10,21,8.60
2009,10,27,10,22,8.70
2009,10,27,10,23,8.70
2009,10,27,10,24,8.70
2009,10,27,10,25,8.70
2009,10,27,10,26,8.70
2009,10,27,10,27,8.70
2009,10,27,10,28,8.80
2009,10,27,10,29,8.80
2009,10,27,10,30,8.90
2009,10,27,10,31,9.00
2009,10,27,10,32,9.10
2009,10,27,10,33,9.20
2009,10,27,10,34,9.30
2009,10,27,10,35,9.40
2009,10,27,10,36,9.50
2009,10,27,10,37,9.50
2009,10,27,10,38,9.60
2009,10,27,10,39,9.60
2009,10,27,10,40,9.70
2009,10,27,10,41,9.60
2009,10,27,10,42,9.60
2009,10,27,10,43,9.60
2009,10,27,10,44,9.60
2009,10,27,10,45,9.50
2009,10,27,10,46,9.50
2009,10,27,10,47,9.40
2009,10,27,10,48,9.30
2009,10,27,10,49,9.20
2009,10,27,10,50,9.20
2009,10,27,10,51,9.20
2009,10,27,10,52,9.20
2009,10,27,10,53,9.20
2009,10,27,10,54,9.30
2009,10,27,10,55,9.30
2009,10,27,10,56,9.30
2009,10,27,10,57,9.40
2009,10,27,10,58,9.40
2009,10,27,10,59,9.40
2009,10,27,11,00,9.40
2009,10,27,11,01,9.50
2009,10,27,11,02,9.60
2009,10,27,11,03,9.70
2009,10,27,11,04,9.80
2009,10,27,11,05,9.90
2009,10,27,11,06,9.90
2009,10,27,11,07,10.00
2009,10,27,11,08,10.00
2009,10,27,11,09,10.10
2009,10,27,11,10,10.20
2009,10,27,11,11,10.30
2009,10,27,11,12,10.30
2009,10,27,11,13,10.40
2009,10,27,11,14,10.40
2009,10,27,11,15,10.50
2009,10,27,11,16,10.60
2009,10,27,11,17,10.60
2009,10,27,11,18,10.50
2009,10,27,11,19,10.50
2009,10,27,11,20,10.40
2009,10,27,11,21,10.40
2009,10,27,11,22,10.40
2009,10,27,11,23,10.40
2009,10,27,11,24,10.50
2009,10,27,11,25,10.50
2009,10,27,11,26,10.60
2009,10,27,11,27,10.60
2009,10,27,11,28,10.60
2009,10,27,11,29,10.60
2009,10,27,11,30,10.60
2009,10,27,11,31,10.60
2009,10,27,11,32,10.60
2009,10,27,11,33,10.60
2009,10,27,11,34,10.60
2009,10,27,11,35,10.70
2009,10,27,11,36,10.70
2009,10,27,11,37,10.80
2009,10,27,11,38,10.80
2009,10,27,11,39,10.80
2009,10,27,11,40,10.80
2009,10,27,11,41,10.80
2009,10,27,11,42,10.80
2009,10,27,11,43,10.70
2009,10,27,11,44,10.70
2009,10,27,11,45,10.70
2009,10,27,11,46,10.70
2009,10,27,11,47,10.70
2009,10,27,11,48,10.70
2009,10,27,11,49,10.70
2009,10,27,11,50,10.70
2009,10,27,11,51,10.70
2009,10,27,11,52,10.70
2009,10,27,11,53,10.70
2009,10,27,11,54,10.80
2009,10,27,11,55,10.90
2009,10,27,11,56,11.00
2009,10,27,11,57,11.00
2009,10,27,11,58,10.90
2009,10,27,11,59,10.90
2009,10,27,12,00,10.90
2009,10,27,12,01,10.90
2009,10,27,12,02,10.80
2009,10,27,12,03,10.80
2009,10,27,12,04,10.70
2009,10,27,12,05,10.60
2009,10,27,12,06,10.60
2009,10,27,12,07,10.60
2009,10,27,12,08,10.60
2009,10,27,12,09,10.70
2009,10,27,12,10,10.80
2009,10,27,12,11,10.90
2009,10,27,12,12,11.00
2009,10,27,12,13,11.10
2009,10,27,12,14,11.20
2009,10,27,12,15,11.30
2009,10,27,12,16,11.40
2009,10,27,12,17,11.40
2009,10,27,12,18,11.40
2009,10,27,12,19,11.40
2009,10,27,12,20,11.40
2009,10,27,12,21,11.40
2009,10,27,12,22,11.30
2009,10,27,12,23,11.20
2009,10,27,12,24,11.20
2009,10,27,12,25,11.10
2009,10,27,12,26,11.10
2009,10,27,12,27,11.10
2009,10,27,12,28,11.00
2009,10,27,12,29,10.80
2009,10,27,12,30,10.80
2009,10,27,12,31,10.70
2009,10,27,12,32,10.60
2009,10,27,12,33,10.60
2009,10,27,12,34,10.60
2009,10,27,12,35,10.50
2009,10,27,12,36,10.60
2009,10,27,12,37,10.60
2009,10,27,12,38,10.70
2009,10,27,12,39,10.80
2009,10,27,12,40,10.80
2009,10,27,12,41,10.80
2009,10,27,12,42,10.70
2009,10,27,12,43,10.60
2009,10,27,12,44,10.60
2009,10,27,12,45,10.60
2009,10,27,12,46,10.50
2009,10,27,12,47,10.50
2009,10,27,12,48,10.50
2009,10,27,12,49,10.50
2009,10,27,12,50,10.50
2009,10,27,12,51,10.40
2009,10,27,12,52,10.40
2009,10,27,12,53,10.30
2009,10,27,12,54,10.30
2009,10,27,12,55,10.30
2009,10,27,12,56,10.30
2009,10,27,12,57,10.30
2009,10,27,12,58,10.30
2009,10,27,12,59,10.30
2009,10,27,13,00,10.20
2009,10,27,13,01,10.20
2009,10,27,13,02,10.30
2009,10,27,13,03,10.30
2009,10,27,13,04,10.30
2009,10,27,13,05,10.30
2009,10,27,13,06,10.30
2009,10,27,13,07,10.30
2009,10,27,13,08,10.30
2009,10,27,13,09,10.40
2009,10,27,13,10,10.40
2009,10,27,13,11,10.40
2009,10,27,13,12,10.50
2009,10,27,13,13,10.50
2009,10,27,13,14,10.50
2009,10,27,13,15,10.60
2009,10,27,13,16,10.60
2009,10,27,13,17,10.60
2009,10,27,13,18,10.60
2009,10,27,13,19,10.50
2009,10,27,13,20,10.50
2009,10,27,13,21,10.40
2009,10,27,13,22,10.40
2009,10,27,13,23,10.30
2009,10,27,13,24,10.30
2009,10,27,13,25,10.20
2009,10,27,13,26,10.20
2009,10,27,13,27,10.20
2009,10,27,13,28,10.20
2009,10,27,13,29,10.30
2009,10,27,13,30,10.30
2009,10,27,13,31,10.30
2009,10,27,13,32,10.30
2009,10,27,13,33,10.40
2009,10,27,13,34,10.50
2009,10,27,13,35,10.60
2009,10,27,13,36,10.60
2009,10,27,13,37,10.60
2009,10,27,13,38,10.60
2009,10,27,13,39,10.60
2009,10,27,13,40,10.50
2009,10,27,13,41,10.50
2009,10,27,13,42,10.50
2009,10,27,13,43,10.50
2009,10,27,13,44,10.50
2009,10,27,13,45,10.60
2009,10,27,13,46,10.60
2009,10,27,13,47,10.60
2009,10,27,13,48,10.70
2009,10,27,13,49,10.70
2009,10,27,13,50,10.70
2009,10,27,13,51,10.70
2009,10,27,13,52,10.70
2009,10,27,13,53,10.70
2009,10,27,13,54,10.80
2009,10,27,13,55,10.80
2009,10,27,13,56,10.80
2009,10,27,13,57,10.80
2009,10,27,13,58,10.80
2009,10,27,13,59,10.90
2009,10,27,14,00,10.90
2009,10,27,14,01,10.90
2009,10,27,14,02,10.90
2009,10,27,14,03,11.00
2009,10,27,14,04,11.00
2009,10,27,14,05,11.00
2009,10,27,14,06,11.00
2009,10,27,14,07,11.00
2009,10,27,14,08,11.00
2009,10,27,14,09,11.00
2009,10,27,14,10,11.00
2009,10,27,14,11,11.00
2009,10,27,14,12,11.00
2009,10,27,14,13,11.10
2009,10,27,14,14,11.10
2009,10,27,14,15,11.10
2009,10,27,14,16,11.20
2009,10,27,14,17,11.20
2009,10,27,14,18,11.20
2009,10,27,14,19,11.20
2009,10,27,14,20,11.10
2009,10,27,14,21,11.10
2009,10,27,14,22,11.10
2009,10,27,14,23,11.10
2009,10,27,14,24,11.10
2009,10,27,14,25,11.10
2009,10,27,14,26,11.10
2009,10,27,14,27,11.20
2009,10,27,14,28,11.20
2009,10,27,14,29,11.20
2009,10,27,14,30,11.30
2009,10,27,14,31,11.30
2009,10,27,14,32,11.40
2009,10,27,14,33,11.50
2009,10,27,14,34,11.50
2009,10,27,14,35,11.50
2009,10,27,14,36,11.50
2009,10,27,14,37,11.40
2009,10,27,14,38,11.40
2009,10,27,14,39,11.40
2009,10,27,14,40,11.40
2009,10,27,14,41,11.40
2009,10,27,14,42,11.40
2009,10,27,14,43,11.40
2009,10,27,14,44,11.40
2009,10,27,14,45,11.40
2009,10,27,14,46,11.30
2009,10,27,14,47,11.30
2009,10,27,14,48,11.30
2009,10,27,14,49,11.40
2009,10,27,14,50,11.40
2009,10,27,14,51,11.40
2009,10,27,14,52,11.40
2009,10,27,14,53,11.40
2009,10,27,14,54,11.40
2009,10,27,14,55,11.40
2009,10,27,14,56,11.40
2009,10,27,14,57,11.40
2009,10,27,14,58,11.40
2009,10,27,14,59,11.40
2009,10,27,15,00,11.40
2009,10,27,15,01,11.30
2009,10,27,15,02,11.30
2009,10,27,15,03,11.30
2009,10,27,15,04,11.30
2009,10,27,15,05,11.30
2009,10,27,15,06,11.30
2009,10,27,15,07,11.30
2009,10,27,15,08,11.30
2009,10,27,15,09,11.30
2009,10,27,15,10,11.30
2009,10,27,15,11,11.30
2009,10,27,15,12,11.30
2009,10,27,15,13,11.30
2009,10,27,15,14,11.30
2009,10,27,15,15,11.40
2009,10,27,15,16,11.40
2009,10,27,15,17,11.40
2009,10,27,15,18,11.30
2009,10,27,15,19,11.30
2009,10,27,15,20,11.20
2009,10,27,15,21,11.20
2009,10,27,15,22,11.10
2009,10,27,15,23,11.10
2009,10,27,15,24,11.00
2009,10,27,15,25,11.00
2009,10,27,15,26,10.90
2009,10,27,15,27,10.90
2009,10,27,15,28,10.80
2009,10,27,15,29,10.80
2009,10,27,15,30,10.80
2009,10,27,15,31,10.80
2009,10,27,15,32,10.80
2009,10,27,15,33,10.80
2009,10,27,15,34,10.80
2009,10,27,15,35,10.80
2009,10,27,15,36,10.80
2009,10,27,15,37,10.80
2009,10,27,15,38,10.80
2009,10,27,15,39,10.80
2009,10,27,15,40,10.80
2009,10,27,15,41,10.80
2009,10,27,15,42,10.80
2009,10,27,15,43,10.80
2009,10,27,15,44,10.80
2009,10,27,15,45,10.80
2009,10,27,15,46,10.80
2009,10,27,15,47,10.80
2009,10,27,15,48,10.80
2009,10,27,15,49,10.80
2009,10,27,15,50,10.80
2009,10,27,15,51,10.80
2009,10,27,15,52,10.90
2009,10,27,15,53,10.90
2009,10,27,15,54,10.90
2009,10,27,15,55,10.90
2009,10,27,15,56,10.80
2009,10,27,15,57,10.80
2009,10,27,15,58,10.80
2009,10,27,15,59,10.80
2009,10,27,16,00,10.80
2009,10,27,16,01,10.70
2009,10,27,16,02,10.70
2009,10,27,16,03,10.70
2009,10,27,16,04,10.70
2009,10,27,16,05,10.60
2009,10,27,16,06,10.60
2009,10,27,16,07,10.70
2009,10,27,16,08,10.70
2009,10,27,16,09,10.70
2009,10,27,16,10,10.70
2009,10,27,16,11,10.70
2009,10,27,16,12,10.70
2009,10,27,16,13,10.70
2009,10,27,16,14,10.70
2009,10,27,16,15,10.70
2009,10,27,16,16,10.70
2009,10,27,16,17,10.70
2009,10,27,16,18,10.70
2009,10,27,16,19,10.70
2009,10,27,16,20,10.60
2009,10,27,16,21,10.60
2009,10,27,16,22,10.60
2009,10,27,16,23,10.60
2009,10,27,16,24,10.60
2009,10,27,16,25,10.60
2009,10,27,16,26,10.60
2009,10,27,16,27,10.50
2009,10,27,16,28,10.50
2009,10,27,16,29,10.50
2009,10,27,16,30,10.50
2009,10,27,16,31,10.50
2009,10,27,16,32,10.40
2009,10,27,16,33,10.40
2009,10,27,16,34,10.40
2009,10,27,16,35,10.40
2009,10,27,16,36,10.40
2009,10,27,16,37,10.40
2009,10,27,16,38,10.30
2009,10,27,16,39,10.30
2009,10,27,16,40,10.30
2009,10,27,16,41,10.30
2009,10,27,16,42,10.20
2009,10,27,16,43,10.20
2009,10,27,16,44,10.10
2009,10,27,16,45,10.10
2009,10,27,16,46,10.00
2009,10,27,16,47,10.00
2009,10,27,16,48,9.90
2009,10,27,16,49,9.90
2009,10,27,16,50,9.80
2009,10,27,16,51,9.80
2009,10,27,16,52,9.80
2009,10,27,16,53,9.70
2009,10,27,16,54,9.70
2009,10,27,16,55,9.70
2009,10,27,16,56,9.60
2009,10,27,16,57,9.60
2009,10,27,16,58,9.60
2009,10,27,16,59,9.60
2009,10,27,17,00,9.60
2009,10,27,17,01,9.60
2009,10,27,17,02,9.60
2009,10,27,17,03,9.60
2009,10,27,17,04,9.60
2009,10,27,17,05,9.60
2009,10,27,17,06,9.70
2009,10,27,17,07,9.70
2009,10,27,17,08,9.70
2009,10,27,17,09,9.70
2009,10,27,17,10,9.70
2009,10,27,17,11,9.70
2009,10,27,17,12,9.70
2009,10,27,17,13,9.60
2009,10,27,17,14,9.60
2009,10,27,17,15,9.60
2009,10,27,17,16,9.50
2009,10,27,17,17,9.50
2009,10,27,17,18,9.40
2009,10,27,17,19,9.40
2009,10,27,17,20,9.40
2009,10,27,17,21,9.40
2009,10,27,17,22,9.40
2009,10,27,17,23,9.40
2009,10,27,17,24,9.40
2009,10,27,17,25,9.40
2009,10,27,17,26,9.30
2009,10,27,17,27,9.20
2009,10,27,17,28,9.20
2009,10,27,17,29,9.20
2009,10,27,17,30,9.10
2009,10,27,17,31,9.10
2009,10,27,17,32,9.10
2009,10,27,17,33,9.00
2009,10,27,17,34,9.00
2009,10,27,17,35,8.90
2009,10,27,17,36,8.90
2009,10,27,17,37,8.80
2009,10,27,17,38,8.80
2009,10,27,17,39,8.80
2009,10,27,17,40,8.70
2009,10,27,17,41,8.70
2009,10,27,17,42,8.60
2009,10,27,17,43,8.60
2009,10,27,17,44,8.50
2009,10,27,17,45,8.50
2009,10,27,17,46,8.40
2009,10,27,17,47,8.40
2009,10,27,17,48,8.30
2009,10,27,17,49,8.30
2009,10,27,17,50,8.20
2009,10,27,17,51,8.20
2009,10,27,17,52,8.10
2009,10,27,17,53,8.10